This is the latest recevied weather packets stored in our database for station/object K1WJY. If no packets are shown the sender has not sent any weather packets the latest 10 day(s).
| Time | Temp. | Humidity | Pressure | Rain* | Wind** | Luminosity | Snow |
|---|---|---|---|---|---|---|---|
| 1777976090 | 8.33° C | 94% | 1011.5 hPa | 0 mm | - | 38 W/m² | - |
| 1777975786 | 8.33° C | 94% | 1011.5 hPa | 0 mm | - | 35 W/m² | - |
| 1777975483 | 8.33° C | 94% | 1011.5 hPa | 0 mm | - | 32 W/m² | - |
| 1777975179 | 8.33° C | 94% | 1011.4 hPa | 0 mm | - | 29 W/m² | - |
| 1777974876 | 8.33° C | 94% | 1011.3 hPa | 0 mm | - | 24 W/m² | - |
| 1777974572 | 8.33° C | 94% | 1011.5 hPa | 0 mm | - | 19 W/m² | - |
| 1777974269 | 8.33° C | 94% | 1011.2 hPa | 0 mm | - | 15 W/m² | - |
| 1777973965 | 8.33° C | 94% | 1011.3 hPa | 0 mm | - | 12 W/m² | - |
| 1777973662 | 8.33° C | 94% | 1011.3 hPa | 0 mm | - | 10 W/m² | - |
| 1777973359 | 7.78° C | 94% | 1011 hPa | 0 mm | - | 6 W/m² | - |
| 1777973057 | 7.78° C | 94% | 1011.2 hPa | 0 mm | - | 3 W/m² | - |
| 1777972754 | 7.78° C | 94% | 1011.3 hPa | 0 mm | - | 2 W/m² | - |
| 1777972452 | 7.78° C | 95% | 1011.4 hPa | 0 mm | - | 0 W/m² | - |
| 1777972150 | 7.78° C | 94% | 1011.4 hPa | 0 mm | - | 0 W/m² | - |
| 1777971848 | 7.78° C | 94% | 1011.5 hPa | 0 mm | - | 0 W/m² | - |
| 1777971545 | 7.78° C | 95% | 1011.2 hPa | 0 mm | - | 0 W/m² | - |
| 1777971243 | 7.78° C | 95% | 1011.2 hPa | 0 mm | - | 0 W/m² | - |
| 1777970941 | 7.78° C | 95% | 1011.2 hPa | 0 mm | - | 0 W/m² | - |
| 1777970639 | 7.78° C | 95% | 1011 hPa | 0 mm | - | 0 W/m² | - |
| 1777970336 | 7.78° C | 95% | 1011.2 hPa | 0 mm | - | 0 W/m² | - |
| 1777970034 | 7.78° C | 94% | 1011.3 hPa | 0 mm | - | 0 W/m² | - |
| 1777969729 | 7.78° C | 94% | 1011 hPa | 0 mm | - | 0 W/m² | - |
| 1777969426 | 7.78° C | 94% | 1011.3 hPa | 0 mm | - | 0 W/m² | - |
| 1777969122 | 7.78° C | 94% | 1011.2 hPa | 0 mm | - | 0 W/m² | - |
| 1777968819 | 7.78° C | 94% | 1011.1 hPa | 0 mm | - | 0 W/m² | - |
* Rain latest hour (hover to see other rain measurements)
** Current wind speed in m/s (hover to see current wind gust speed)